Weather History for Tunica, MS

Change the Weather History Date:

Saturday, January 4, 2014

  Actual Average (KMEM) Record (KMEM)
Temperature  
Mean Temperature 38 °F 41 °F  
Max Temperature 50 °F 49 °F 73 °F (1997)
Min Temperature 26 °F 33 °F 8 °F (1879)
Degree Days  
Heating Degree Days 27 24  
Month to date heating degree days 96  
Since 1 July heating degree days 1260  
Cooling Degree Days 0 0  
Month to date cooling degree days 0  
Year to date cooling degree days 0  
Moisture  
Dew Point 26 °F    
Average Humidity 60    
Maximum Humidity 76    
Minimum Humidity 37    
Precipitation  
Precipitation 0.00 in 0.15 in 2.86 in (1939)
Month to date precipitation 0.58  
Year to date precipitation 0.58  
Snow  
Snow 0.00 in 0.10 in 8.50 in (1878)
Month to date snowfall 0.2  
Since 1 July snowfall 0.4  
Snow Depth -    
Sea Level Pressure  
Sea Level Pressure 30.12 in    
Wind  
Wind Speed 12 mph (SSE)    
Max Wind Speed 21 mph    
Max Gust Speed 26 mph    
Visibility 10 miles    
Events      
T = Trace of Precipitation, MM = Missing Value Source: NWS Daily Summary

Daily Weather History Graph

Daily Weather History Graph

Search for Another Location

Airport:

Trip Planner

Search our weather history database for the weather conditions in past years. The results will help you decide how hot, cold, wet, or windy it might be!

Date:

Astronomy

Jan. 04, 2014 Rise Set
Actual Time 7:09 AM CST 5:03 PM CST
Civil Twilight 6:41 AM CST 5:31 PM CST
Nautical Twilight 6:09 AM CST 6:03 PM CST
Astronomical Twilight 5:39 AM CST 6:33 PM CST
Moon 9:24 AM CST (1/4) 9:12 PM CST (1/4)
Length of Visible Light 10h 50m
Length of Day
9h 54m
Waxing Crescent, 15% of the Moon is Illuminated
Jan 4
Waxing Crescent
Jan 7
First Quarter
Jan 15
Full
Jan 23
Last Quarter
Jan 30
New

Hourly Weather History & Observations

Time (CST) Temp. Windchill Dew Point Humidity Pressure Visibility Wind Dir Wind Speed Gust Speed Precip Events Conditions
12:15 AM 26.6 °F 17.5 °F 19.4 °F 74% 30.26 in 10.0 mi SSE 9.2 mph - N/A   Clear
12:35 AM 26.6 °F 19.1 °F 19.4 °F 74% 30.26 in 10.0 mi SSE 6.9 mph - N/A   Clear
12:55 AM 26.6 °F 19.1 °F 19.4 °F 74% 30.26 in 10.0 mi South 6.9 mph - N/A   Clear
1:15 AM 26.6 °F 18.2 °F 19.4 °F 74% 30.27 in 10.0 mi SSE 8.1 mph - N/A   Clear
1:35 AM 26.6 °F 17.5 °F 19.4 °F 74% 30.27 in 10.0 mi SSE 9.2 mph - N/A   Clear
1:55 AM 26.6 °F 17.5 °F 19.4 °F 74% 30.27 in 10.0 mi SSE 9.2 mph - N/A   Clear
2:15 AM 26.6 °F 17.5 °F 19.4 °F 74% 30.27 in 10.0 mi SSE 9.2 mph - N/A   Clear
2:35 AM 26.6 °F 16.8 °F 19.4 °F 74% 30.27 in 10.0 mi SSE 10.4 mph - N/A   Clear
2:55 AM 28.4 °F 18.0 °F 19.4 °F 69% 30.27 in 10.0 mi SSE 12.7 mph - N/A   Clear
3:15 AM 28.4 °F 17.5 °F 19.4 °F 69% 30.26 in 10.0 mi SSE 13.8 mph - N/A   Clear
3:35 AM 28.4 °F 17.5 °F 19.4 °F 69% 30.25 in 10.0 mi SSE 13.8 mph - N/A   Clear
3:55 AM 28.4 °F 18.5 °F 19.4 °F 69% 30.24 in 10.0 mi SSE 11.5 mph - N/A   Clear
4:15 AM 28.4 °F 18.0 °F 19.4 °F 69% 30.24 in 10.0 mi SSE 12.7 mph - N/A   Clear
4:35 AM 28.4 °F 18.0 °F 19.4 °F 69% 30.23 in 10.0 mi SSE 12.7 mph - N/A   Clear
4:55 AM 28.4 °F 19.1 °F 19.4 °F 69% 30.23 in 10.0 mi SSE 10.4 mph - N/A   Clear
5:15 AM 28.4 °F 19.7 °F 19.4 °F 69% 30.23 in 10.0 mi SSE 9.2 mph - N/A   Clear
5:35 AM 28.4 °F 19.1 °F 19.4 °F 69% 30.23 in 10.0 mi SSE 10.4 mph - N/A   Clear
5:55 AM 28.4 °F 19.7 °F 19.4 °F 69% 30.23 in 10.0 mi SSE 9.2 mph - N/A   Clear
6:15 AM 28.4 °F 19.1 °F 19.4 °F 69% 30.23 in 10.0 mi SSE 10.4 mph - N/A   Clear
6:35 AM 28.4 °F 18.5 °F 19.4 °F 69% 30.23 in 10.0 mi SSE 11.5 mph - N/A   Clear
6:55 AM 28.4 °F 18.0 °F 19.4 °F 69% 30.22 in 10.0 mi SSE 12.7 mph - N/A   Clear
7:15 AM 28.4 °F 18.0 °F 19.4 °F 69% 30.23 in 10.0 mi SSE 12.7 mph - N/A   Clear
7:35 AM 28.4 °F 18.0 °F 19.4 °F 69% 30.22 in 10.0 mi SSE 12.7 mph - N/A   Clear
7:55 AM 30.2 °F 18.9 °F 19.4 °F 64% 30.22 in 10.0 mi SSE 16.1 mph - N/A   Clear
8:15 AM 32.0 °F 20.8 °F 21.2 °F 64% 30.22 in 10.0 mi SSE 17.3 mph 21.9 mph N/A   Clear
8:35 AM 32.0 °F 21.2 °F 21.2 °F 64% 30.22 in 10.0 mi SSE 16.1 mph - N/A   Clear
8:55 AM 32.0 °F 19.8 °F 21.2 °F 64% 30.22 in 10.0 mi SSE 20.7 mph - N/A   Clear
9:15 AM 33.8 °F 22.5 °F 21.2 °F 60% 30.21 in 10.0 mi South 19.6 mph 25.3 mph N/A   Clear
9:35 AM 35.6 °F 24.5 °F 21.2 °F 56% 30.21 in 10.0 mi South 20.7 mph 26.5 mph N/A   Clear
9:55 AM 35.6 °F 25.5 °F 21.2 °F 56% 30.21 in 10.0 mi SSE 17.3 mph - N/A   Clear
10:15 AM 37.4 °F 27.5 °F 21.2 °F 52% 30.21 in 10.0 mi South 18.4 mph 24.2 mph N/A   Clear
10:35 AM 41.0 °F 32.5 °F 21.2 °F 45% 30.20 in 10.0 mi South 17.3 mph 24.2 mph N/A   Clear
10:55 AM 41.0 °F 32.2 °F 23.0 °F 49% 30.18 in 10.0 mi South 18.4 mph 24.2 mph N/A   Clear
11:15 AM 41.0 °F 32.2 °F 23.0 °F 49% 30.16 in 10.0 mi South 18.4 mph 25.3 mph N/A   Clear
11:35 AM 42.8 °F 34.8 °F 23.0 °F 46% 30.15 in 10.0 mi South 17.3 mph 23.0 mph N/A   Clear
11:55 AM 42.8 °F 34.3 °F 23.0 °F 46% 30.14 in 10.0 mi SSE 19.6 mph - N/A   Clear
12:15 PM 44.6 °F 36.9 °F 23.0 °F 43% 30.13 in 10.0 mi South 18.4 mph 21.9 mph N/A   Scattered Clouds
12:35 PM 44.6 °F 37.2 °F 23.0 °F 43% 30.11 in 10.0 mi South 17.3 mph 24.2 mph N/A   Mostly Cloudy
12:55 PM 44.6 °F 37.8 °F 23.0 °F 43% 30.10 in 10.0 mi South 15.0 mph - N/A   Overcast
1:15 PM 44.6 °F 37.2 °F 24.8 °F 46% 30.09 in 10.0 mi South 17.3 mph 23.0 mph N/A   Mostly Cloudy
1:35 PM 46.4 °F 39.0 °F 24.8 °F 43% 30.08 in 10.0 mi SSE 19.6 mph - N/A   Mostly Cloudy
1:55 PM 48.2 °F - 24.8 °F 40% 30.07 in 10.0 mi SSE 15.0 mph 20.7 mph N/A   Mostly Cloudy
2:15 PM 50.0 °F - 24.8 °F 37% 30.06 in 10.0 mi South 17.3 mph - N/A   Scattered Clouds
2:35 PM 48.2 °F - 24.8 °F 40% 30.06 in 10.0 mi South 15.0 mph 26.5 mph N/A   Scattered Clouds
2:55 PM 48.2 °F - 24.8 °F 40% 30.05 in 10.0 mi SSE 16.1 mph - N/A   Scattered Clouds
3:15 PM 48.2 °F - 24.8 °F 40% 30.04 in 10.0 mi SSE 17.3 mph - N/A   Mostly Cloudy
3:35 PM 50.0 °F - 26.6 °F 40% 30.03 in 10.0 mi SSE 15.0 mph 20.7 mph N/A   Overcast
3:55 PM 50.0 °F - 26.6 °F 40% 30.03 in 10.0 mi SSE 12.7 mph - N/A   Overcast
4:15 PM 46.4 °F 39.2 °F 28.4 °F 50% 30.00 in 10.0 mi SE 18.4 mph 24.2 mph N/A   Mostly Cloudy
4:35 PM 46.4 °F 40.1 °F 28.4 °F 50% 30.00 in 10.0 mi SSE 15.0 mph - N/A   Overcast
4:55 PM 46.4 °F 40.4 °F 28.4 °F 50% 29.99 in 10.0 mi SE 13.8 mph - N/A   Overcast
5:15 PM 46.4 °F 40.7 °F 30.2 °F 53% 29.99 in 10.0 mi SE 12.7 mph - N/A   Overcast
5:35 PM 46.4 °F 41.9 °F 30.2 °F 53% 29.99 in 10.0 mi SSE 9.2 mph - N/A   Overcast
5:55 PM 46.4 °F 42.9 °F 32.0 °F 57% 30.00 in 10.0 mi SSE 6.9 mph - N/A   Overcast
6:15 PM 46.4 °F 41.5 °F 32.0 °F 57% 30.00 in 10.0 mi SSE 10.4 mph - N/A   Overcast
6:35 PM 46.4 °F 40.7 °F 32.0 °F 57% 29.99 in 10.0 mi SE 12.7 mph - N/A   Overcast
6:55 PM 46.4 °F 40.7 °F 32.0 °F 57% 29.99 in 10.0 mi SE 12.7 mph - N/A   Overcast
7:15 PM 44.6 °F 40.2 °F 32.0 °F 61% 29.99 in 10.0 mi SSE 8.1 mph - N/A   Overcast
7:35 PM 44.6 °F 39.7 °F 32.0 °F 61% 29.99 in 10.0 mi SE 9.2 mph - N/A   Overcast
7:55 PM 46.4 °F 40.7 °F 32.0 °F 57% 29.99 in 10.0 mi SE 12.7 mph - N/A   Overcast
8:15 PM 46.4 °F 40.1 °F 33.8 °F 62% 29.99 in 10.0 mi SE 15.0 mph - N/A   Overcast
8:35 PM 46.4 °F 40.1 °F 35.6 °F 66% 29.99 in 10.0 mi SE 15.0 mph - N/A   Overcast
8:55 PM 48.2 °F - 35.6 °F 62% 30.00 in 10.0 mi SSE 15.0 mph - N/A   Overcast
9:15 PM 48.2 °F - 35.6 °F 62% 30.00 in 10.0 mi SSE 15.0 mph - N/A   Overcast
9:35 PM 46.4 °F 40.7 °F 37.4 °F 71% 30.00 in 10.0 mi SSE 12.7 mph - N/A   Overcast
9:55 PM 46.4 °F 40.1 °F 37.4 °F 71% 30.00 in 10.0 mi SSE 15.0 mph - N/A   Overcast
10:15 PM 46.4 °F 39.5 °F 37.4 °F 71% 29.99 in 10.0 mi SSE 17.3 mph 20.7 mph N/A   Overcast
10:35 PM 46.4 °F 39.5 °F 37.4 °F 71% 29.99 in 10.0 mi SE 17.3 mph - N/A   Overcast
10:55 PM 46.4 °F 40.1 °F 37.4 °F 71% 29.98 in 10.0 mi SSE 15.0 mph - N/A   Overcast
11:15 PM 46.4 °F 39.2 °F 37.4 °F 71% 29.98 in 10.0 mi SSE 18.4 mph - N/A   Overcast
11:35 PM 46.4 °F 39.8 °F 39.2 °F 76% 29.98 in 10.0 mi SSE 16.1 mph - N/A   Overcast
11:55 PM 48.2 °F - 39.2 °F 71% 29.98 in 10.0 mi SSE 15.0 mph - N/A   Overcast